Find Starlink 3304

NORAD ID: 50161 Int'l Des: 2021-125 Owner: SPXS Country: US Constellation: starlink operational
LEOCIRCULAR

Live Position

Loading 3D Globe...

About Starlink 3304

Description loading...

Upcoming Passes

Passes for default location (London). Set your location on the main map for personalized predictions.

Altitude History

Loading altitude history...

Two-Line Element Set

1 50161U 21125F 26123.08858605 -.00000510 00000-0 -13922-4 0 9997
2 50161 53.2197 14.9124 0001562 86.0820 274.0351 15.08842394244669
Epoch: May 3, 2026 • Age: 8 hours

Current Status

Altitude 543.0 km
Velocity 7.60 km/s
Sub-Earth Point 42.83°N, 40.66°E
Launch Date Dec 18, 2021
Age 4.3 years
Type internet

Technical Details

Classification Payload
Mass 290.00 kg
Dry Mass 270.00 kg
Total Mass 290.00 kg
Length 0.20 m
Diameter 2.80 m
Span 9.00 m
Shape Box + pan
Manufacturer SPXS
Bus Type Starlink
Phase Status In Orbit
Owner/State SPXS/US

Most Searched